When you browse on this site, cookies collect data to enhance your experience and personalize the content and advertising you see.
Visit our Privacy Policy to learn more. By continuing to use the site, you agree to this use of cookies and data.
  • In Österreich
  • Länderverzeichnis
  • Für 7 Tage
  • Wassertemperatur
  • Satellitenkarten
  • Wetterkarte
  • News
  • Widgets
  • user-avatar
    Anmelden

    Stündliche Wetter Plotavec

    Heute, 21 März, Donnerstag

    Zeit Temperatur Niederschläge Wind Luftdruck Luftfeuchtigkeit
    00:00 -4°C° 0 mm 2 m/S 749 mmHg 94%
    01:00 -5°C° 0 mm 3 m/S 749 mmHg 94%
    02:00 -6°C° 0 mm 3 m/S 749 mmHg 95%
    03:00 -6°C° 0 mm 3 m/S 748 mmHg 95%
    04:00 -5°C° 0 mm 3 m/S 748 mmHg 94%
    05:00 -5°C° 0 mm 3 m/S 748 mmHg 94%
    06:00 -5°C° 0 mm 3 m/S 747 mmHg 94%
    07:00 -4°C° 0 mm 3 m/S 747 mmHg 93%
    08:00 -2°C° 0 mm 3 m/S 747 mmHg 92%
    09:00 -2°C° 0 mm 3 m/S 747 mmHg 94%
    10:00 -1°C° 0 mm 3 m/S 747 mmHg 95%
    11:00 0°C° 0 mm 3 m/S 747 mmHg 97%
    12:00 0°C° 0.1 mm 3 m/S 747 mmHg 96%
    13:00 0°C° 0.1 mm 3 m/S 748 mmHg 96%
    14:00 +2°C° 0.1 mm 2 m/S 748 mmHg 95%
    15:00 +1°C° 0 mm 3 m/S 748 mmHg 92%
    16:00 0°C° 0 mm 3 m/S 748 mmHg 90%
    17:00 0°C° 0 mm 3 m/S 748 mmHg 87%
    18:00 0°C° 0 mm 3 m/S 748 mmHg 89%
    19:00 0°C° 0 mm 3 m/S 748 mmHg 90%
    20:00 -1°C° 0 mm 3 m/S 748 mmHg 91%
    21:00 -1°C° 0 mm 3 m/S 747 mmHg 92%
    22:00 -1°C° 0 mm 3 m/S 747 mmHg 92%
    23:00 -1°C° 0 mm 3 m/S 747 mmHg 92%

    Morgen, 22 März, Freitag

    Zeit Temperatur Niederschläge Wind Luftdruck Luftfeuchtigkeit
    00:00 -2°C° 0 mm 3 m/S 746 mmHg 92%
    01:00 -2°C° 0 mm 3 m/S 745 mmHg 92%
    02:00 -2°C° 0 mm 3 m/S 745 mmHg 92%
    03:00 -3°C° 0.3 mm 4 m/S 744 mmHg 93%
    04:00 -2°C° 0.3 mm 4 m/S 742 mmHg 93%
    05:00 -2°C° 0.3 mm 5 m/S 741 mmHg 94%
    06:00 -1°C° 1.3 mm 5 m/S 740 mmHg 94%
    07:00 -1°C° 1.3 mm 5 m/S 739 mmHg 94%
    08:00 -1°C° 1.3 mm 5 m/S 739 mmHg 94%
    09:00 -2°C° 0.6 mm 6 m/S 739 mmHg 89%
    10:00 -2°C° 0.6 mm 8 m/S 739 mmHg 84%
    11:00 -3°C° 0.6 mm 9 m/S 739 mmHg 79%
    12:00 -2°C° 0.1 mm 8 m/S 740 mmHg 78%
    13:00 -4°C° 0.1 mm 8 m/S 740 mmHg 77%
    14:00 -4°C° 0.1 mm 8 m/S 741 mmHg 76%
    15:00 -3°C° 0.1 mm 7 m/S 741 mmHg 78%
    16:00 -3°C° 0.1 mm 6 m/S 741 mmHg 80%
    17:00 -3°C° 0.1 mm 6 m/S 742 mmHg 83%
    18:00 -4°C° 0 mm 6 m/S 742 mmHg 83%
    19:00 -4°C° 0 mm 5 m/S 743 mmHg 84%
    20:00 -5°C° 0 mm 5 m/S 743 mmHg 85%
    21:00 -4°C° 0.1 mm 6 m/S 743 mmHg 86%
    22:00 -4°C° 0.1 mm 6 m/S 744 mmHg 87%
    23:00 -4°C° 0.1 mm 7 m/S 744 mmHg 88%

    übermorgen, 23 März, Samstag

    Zeit Temperatur Niederschläge Wind Luftdruck Luftfeuchtigkeit
    00:00 -3°C° 0.1 mm 7 m/S 745 mmHg 88%
    01:00 -3°C° 0.1 mm 6 m/S 746 mmHg 89%
    02:00 -3°C° 0.1 mm 6 m/S 747 mmHg 89%
    03:00 -2°C° 0 mm 5 m/S 748 mmHg 90%
    04:00 -2°C° 0 mm 4 m/S 748 mmHg 91%
    05:00 -1°C° 0 mm 3 m/S 749 mmHg 92%
    06:00 -1°C° 0 mm 3 m/S 750 mmHg 93%
    07:00 -1°C° 0 mm 3 m/S 750 mmHg 93%
    08:00 -1°C° 0 mm 3 m/S 751 mmHg 93%
    09:00 -1°C° 0 mm 3 m/S 751 mmHg 94%
    10:00 +1°C° 0 mm 2 m/S 751 mmHg 95%
    11:00 +1°C° 0 mm 2 m/S 751 mmHg 96%
    12:00 +2°C° 0 mm 1 m/S 751 mmHg 95%
    13:00 +2°C° 0 mm 1 m/S 750 mmHg 94%
    14:00 +2°C° 0 mm 0 m/S 750 mmHg 93%
    15:00 +2°C° 0 mm 1 m/S 750 mmHg 92%
    16:00 +2°C° 0 mm 1 m/S 749 mmHg 90%
    17:00 +1°C° 0 mm 2 m/S 749 mmHg 88%
    18:00 +1°C° 0 mm 2 m/S 749 mmHg 88%
    19:00 -1°C° 0 mm 2 m/S 748 mmHg 89%
    20:00 -1°C° 0 mm 3 m/S 748 mmHg 89%
    21:00 -1°C° 0 mm 3 m/S 747 mmHg 88%
    22:00 -2°C° 0 mm 4 m/S 747 mmHg 87%
    23:00 -2°C° 0 mm 4 m/S 746 mmHg 86%

    24 März, Sonntag

    Zeit Temperatur Niederschläge Wind Luftdruck Luftfeuchtigkeit
    00:00 -2°C° 0.4 mm 5 m/S 745 mmHg 88%
    01:00 -2°C° 0.4 mm 5 m/S 745 mmHg 90%
    02:00 -2°C° 0.4 mm 5 m/S 744 mmHg 91%
    03:00 -2°C° 0.4 mm 4 m/S 744 mmHg 92%
    04:00 -1°C° 0.4 mm 4 m/S 743 mmHg 93%
    05:00 -1°C° 0.4 mm 4 m/S 743 mmHg 95%
    06:00 -1°C° 0.1 mm 4 m/S 743 mmHg 93%
    07:00 -1°C° 0.1 mm 5 m/S 743 mmHg 91%
    08:00 -1°C° 0.1 mm 5 m/S 743 mmHg 90%
    09:00 -1°C° 0 mm 5 m/S 743 mmHg 87%
    10:00 0°C° 0 mm 5 m/S 744 mmHg 85%
    11:00 0°C° 0 mm 4 m/S 744 mmHg 83%
    12:00 0°C° 0.1 mm 5 m/S 744 mmHg 81%
    13:00 0°C° 0.1 mm 5 m/S 744 mmHg 79%
    14:00 +1°C° 0.1 mm 5 m/S 744 mmHg 78%
    15:00 0°C° 0 mm 5 m/S 744 mmHg 77%
    16:00 0°C° 0 mm 4 m/S 744 mmHg 77%
    17:00 0°C° 0 mm 3 m/S 745 mmHg 77%
    18:00 0°C° 0.1 mm 3 m/S 745 mmHg 78%
    19:00 -1°C° 0.1 mm 3 m/S 745 mmHg 80%
    20:00 -1°C° 0.1 mm 3 m/S 745 mmHg 82%
    21:00 -2°C° 0 mm 3 m/S 744 mmHg 84%
    22:00 -2°C° 0 mm 3 m/S 744 mmHg 87%
    23:00 -4°C° 0 mm 3 m/S 744 mmHg 89%

    25 März, Montag

    Zeit Temperatur Niederschläge Wind Luftdruck Luftfeuchtigkeit
    00:00 -4°C° 0 mm 3 m/S 744 mmHg 89%
    01:00 -4°C° 0 mm 4 m/S 744 mmHg 90%
    02:00 -5°C° 0 mm 4 m/S 745 mmHg 90%
    03:00 -5°C° 0 mm 4 m/S 745 mmHg 89%
    04:00 -5°C° 0 mm 4 m/S 745 mmHg 88%
    05:00 -7°C° 0 mm 4 m/S 745 mmHg 86%
    06:00 -5°C° 0 mm 4 m/S 745 mmHg 83%
    07:00 -5°C° 0 mm 3 m/S 745 mmHg 80%
    08:00 -4°C° 0 mm 3 m/S 746 mmHg 77%
    09:00 -2°C° 0 mm 3 m/S 745 mmHg 72%
    10:00 -2°C° 0 mm 3 m/S 745 mmHg 67%
    11:00 -1°C° 0 mm 3 m/S 745 mmHg 62%
    12:00 0°C° 0 mm 3 m/S 745 mmHg 60%
    13:00 0°C° 0 mm 3 m/S 745 mmHg 59%
    14:00 0°C° 0 mm 3 m/S 745 mmHg 58%
    15:00 +1°C° 0 mm 2 m/S 744 mmHg 60%
    16:00 +1°C° 0 mm 1 m/S 744 mmHg 63%
    17:00 +1°C° 0 mm 1 m/S 744 mmHg 66%
    18:00 0°C° 0 mm 1 m/S 744 mmHg 68%
    19:00 -1°C° 0 mm 1 m/S 744 mmHg 70%
    20:00 -1°C° 0 mm 1 m/S 744 mmHg 72%
    21:00 -1°C° 0 mm 1 m/S 743 mmHg 74%
    22:00 -4°C° 0 mm 2 m/S 743 mmHg 76%
    23:00 -4°C° 0 mm 2 m/S 743 mmHg 78%

    26 März, Dienstag

    Zeit Temperatur Niederschläge Wind Luftdruck Luftfeuchtigkeit
    00:00 -4°C° 0 mm 2 m/S 743 mmHg 78%
    01:00 -5°C° 0 mm 3 m/S 743 mmHg 79%
    02:00 -5°C° 0 mm 3 m/S 742 mmHg 80%
    03:00 -5°C° 0 mm 3 m/S 742 mmHg 80%
    04:00 -5°C° 0 mm 3 m/S 742 mmHg 81%
    05:00 -5°C° 0 mm 4 m/S 742 mmHg 81%
    06:00 -4°C° 0 mm 4 m/S 742 mmHg 80%
    07:00 -4°C° 0 mm 4 m/S 742 mmHg 79%
    08:00 -3°C° 0 mm 4 m/S 742 mmHg 79%
    09:00 -2°C° 0 mm 4 m/S 742 mmHg 78%
    10:00 -1°C° 0 mm 4 m/S 742 mmHg 78%
    11:00 -1°C° 0 mm 4 m/S 742 mmHg 77%
    12:00 0°C° 0 mm 4 m/S 742 mmHg 77%
    13:00 0°C° 0 mm 5 m/S 742 mmHg 76%
    14:00 0°C° 0 mm 5 m/S 742 mmHg 76%
    15:00 0°C° 0 mm 5 m/S 742 mmHg 77%
    16:00 -1°C° 0 mm 5 m/S 742 mmHg 78%
    17:00 -1°C° 0 mm 5 m/S 742 mmHg 79%
    18:00 -2°C° 0 mm 5 m/S 743 mmHg 80%
    19:00 -2°C° 0 mm 5 m/S 743 mmHg 80%
    20:00 -4°C° 0 mm 5 m/S 743 mmHg 80%
    21:00 -4°C° 0 mm 5 m/S 743 mmHg 78%
    22:00 -5°C° 0 mm 5 m/S 743 mmHg 77%
    23:00 -5°C° 0 mm 6 m/S 743 mmHg 75%
    Mehr zeigen